Regional Weather Roundup
Issued by NWS Goodland, KS

Home | Current Version | Previous Version | Text Only | Print | Product List | Glossary Off
Versions: 1 2 3 4 5 6 7 8 9 10 11 12 13 14 15 16 17 18 19 20 21 22 23 24 25 26 27 28 29 30 31 32 33 34 35 36 37 38 39 40 41 42 43 44 45 46 47 48 49 50

000
ASUS43 KGLD 031908
RWRGLD

GOODLAND FORECAST AREA HOURLY WEATHER ROUNDUP
NATIONAL WEATHER SERVICE GOODLAND KS
100 PM MDT MON AUG 03 2015

...OFFICIAL OBSERVATIONS...

CITY           SKY/WX    TMP DP  RH WIND       PRES   REMARKS
GOODLAND KS    PTSUNNY   89  54  30 SE13G20   30.01F
HILL CITY KS   MOSUNNY   91  68  46 SE10      29.96F
IMPERIAL NEB   CLOUDY    84  62  47 SE10      30.01S
MCCOOK NEB     CLOUDY    86  68  54 E10       29.98S
AKRON CO       CLOUDY    84  59  42 S10       30.07F
BURLINGTON CO  CLOUDY    86  51  29 SE13G23   30.05F
LIMON CO       CLOUDY    81  53  37 SE8       30.11F
$$

...UNOFFICIAL OBSERVATIONS...

CITY           SKY/WX    TMP DP  RH WIND       PRES   REMARKS
COLBY KS       SUNNY     90  70  51 E14G22    30.01F
NORTON KS      SUNNY     88  64  45 E10       29.96
SHARON SPRINGS   N/A     88  65  46 SE8G21      N/A
KIT CARSON CO    N/A     87  53  31 MISG        N/A
YUMA CO          N/A     84  58  41 CALM        N/A
$$



USA.gov is the U.S. government's official web portal to all federal, state and local government web resources and services.